Date String (YYYY-MM-DD hh:mm:ss) UTC,Instrument flags,Ambient pressure (hPa),Sample flow (lpm),Bypass flow (lpm),Sample temperature (°C),Ambient temperature (°C),ASC tube jacket temperature (°C),LED temperature (°C),Box temperature (°C),Sample RH (%),Span deviation,Mass concentration (μg/m³),Mass concentration (μg/m³),Mass concentration (μg/m³)
DateTimeUTC,F1_M11,P_M11,Q1_M11,Q2_M11,T1_M11,T2_M11,T3_M11,T4_M11,T5_M11,U1_M11,ZSPAN_M11,X0_M11,X2_M11,X1_M11
2022-02-15 12:00:00,,0817.0,5.01,0.00,22.5,21.8,00.0,31.5,24.3,05.2,0000.0,0002.72,0001.72,0001.33
2022-02-15 12:01:00,,0817.0,4.98,0.00,22.5,21.8,00.0,31.5,24.2,05.2,0000.0,0002.73,0001.72,0001.33
2022-02-15 12:02:00,,0817.0,5.01,0.00,22.5,21.8,00.0,31.5,24.2,05.3,0000.0,0002.72,0001.71,0001.33
2022-02-15 12:03:00,,0816.9,5.00,0.00,22.5,21.8,00.0,31.5,24.2,05.0,0000.0,0002.68,0001.69,0001.32
2022-02-15 12:04:00,,0817.2,4.99,0.00,22.5,21.8,00.0,31.5,24.2,04.7,0000.0,0002.67,0001.68,0001.32
2022-02-15 12:05:00,,0817.0,5.02,0.00,22.5,21.8,00.0,31.5,24.2,04.5,0000.0,0002.49,0001.65,0001.32
2022-02-15 12:06:00,,0816.9,4.99,0.00,22.5,21.8,00.0,31.5,24.3,04.4,0000.0,0002.45,0001.63,0001.31
2022-02-15 12:07:00,,0817.2,5.00,0.00,22.5,21.8,00.0,31.5,24.3,04.5,0000.0,0002.46,0001.64,0001.30
2022-02-15 12:08:00,,0817.0,5.01,0.00,22.5,21.8,00.0,31.5,24.3,04.5,0000.0,0002.49,0001.65,0001.30
2022-02-15 12:09:00,,0817.1,4.99,0.00,22.5,21.7,00.0,31.5,24.2,04.5,0000.0,0002.46,0001.65,0001.31
2022-02-15 12:10:00,,0816.8,5.02,0.00,22.5,21.7,00.0,31.5,24.2,04.6,0000.0,0002.47,0001.63,0001.30
2022-02-15 12:11:00,,0816.8,4.99,0.00,22.4,21.7,00.0,31.5,24.2,04.7,0000.0,0002.39,0001.61,0001.29
2022-02-15 12:12:00,,0816.8,5.01,0.00,22.4,21.7,00.0,31.5,24.2,04.7,0000.0,0002.43,0001.63,0001.30
2022-02-15 12:13:00,,0816.8,5.00,0.00,22.4,21.7,00.0,31.5,24.2,04.7,0000.0,0002.42,0001.64,0001.30
2022-02-15 12:14:00,,0816.8,5.00,0.00,22.4,21.7,00.0,31.5,24.2,04.8,0000.0,0002.53,0001.66,0001.30
2022-02-15 12:15:00,,0816.8,4.99,0.00,22.4,21.7,00.0,31.4,24.2,04.7,0000.0,0003.10,0001.69,0001.30
2022-02-15 12:16:00,,0817.1,5.02,0.00,22.4,21.7,00.0,31.4,24.2,04.7,0000.0,0003.16,0001.73,0001.30
2022-02-15 12:17:00,,0817.0,4.98,0.00,22.4,21.7,00.0,31.4,24.2,04.8,0000.0,0003.25,0001.78,0001.30
2022-02-15 12:18:00,,0817.0,5.02,0.00,22.4,21.7,00.0,31.4,24.2,04.7,0000.0,0003.16,0001.75,0001.30
2022-02-15 12:19:00,,0816.8,4.99,0.00,22.4,21.7,00.0,31.4,24.2,04.8,0000.0,0003.11,0001.74,0001.30
2022-02-15 12:20:00,,0816.8,4.99,0.00,22.4,21.7,00.0,31.4,24.2,04.9,0000.0,0003.11,0001.75,0001.29
2022-02-15 12:21:00,,0816.8,5.02,0.00,22.4,21.7,00.0,31.4,24.2,04.9,0000.0,0003.14,0001.75,0001.29
2022-02-15 12:22:00,,0817.3,5.00,0.00,22.4,21.7,00.0,31.4,24.1,04.9,0000.0,0003.18,0001.75,0001.29
2022-02-15 12:23:00,,0817.0,4.99,0.00,22.3,21.7,00.0,31.4,24.1,05.1,0000.0,0003.33,0001.76,0001.28
2022-02-15 12:24:00,,0817.3,5.01,0.00,22.3,21.6,00.0,31.4,24.1,05.0,0000.0,0003.28,0001.76,0001.28
2022-02-15 12:25:00,,0817.2,4.99,0.00,22.3,21.5,00.0,31.4,24.0,05.0,0000.0,0003.25,0001.74,0001.27
2022-02-15 12:26:00,,0817.1,5.01,0.00,22.3,21.5,00.0,31.4,24.0,05.0,0000.0,0002.85,0001.74,0001.28
2022-02-15 12:27:00,,0816.9,5.00,0.00,22.2,21.4,00.0,31.3,23.9,05.0,0000.0,0002.65,0001.71,0001.28
2022-02-15 12:28:00,,0816.7,5.00,0.00,22.2,21.4,00.0,31.3,23.9,05.0,0000.0,0002.50,0001.64,0001.28
2022-02-15 12:29:00,,0816.7,5.01,0.00,22.2,21.4,00.0,31.3,23.9,05.1,0000.0,0002.46,0001.63,0001.29
2022-02-15 12:30:00,,0816.7,5.00,0.00,22.2,21.4,00.0,31.3,23.9,05.1,0000.0,0003.64,0001.67,0001.30
2022-02-15 12:31:00,,0816.7,4.99,0.00,22.2,21.4,00.0,31.3,23.9,05.1,0000.0,0004.16,0001.67,0001.30
2022-02-15 12:32:00,,0816.9,5.02,0.00,22.1,21.4,00.0,31.2,23.9,05.2,0000.0,0004.26,0001.66,0001.31
2022-02-15 12:33:00,,0816.8,5.01,0.00,22.2,21.4,00.0,31.2,23.9,05.1,0000.0,0004.34,0001.69,0001.32
2022-02-15 12:34:00,,0816.8,4.99,0.00,22.2,21.4,00.0,31.2,23.9,05.1,0000.0,0004.56,0001.69,0001.32
2022-02-15 12:35:00,,0816.8,5.01,0.00,22.1,21.4,00.0,31.2,23.9,05.1,0000.0,0004.92,0001.71,0001.34
2022-02-15 12:36:00,,0816.8,4.98,0.00,22.1,21.4,00.0,31.2,23.8,05.1,0000.0,0004.99,0001.73,0001.34
2022-02-15 12:37:00,,0816.8,5.01,0.00,22.1,21.4,00.0,31.2,23.8,05.1,0000.0,0005.03,0001.75,0001.36
2022-02-15 12:38:00,,0816.7,5.00,0.00,22.1,21.4,00.0,31.2,23.8,05.1,0000.0,0005.16,0001.79,0001.37
2022-02-15 12:39:00,,0816.8,4.99,0.00,22.1,21.3,00.0,31.2,23.8,05.0,0000.0,0005.22,0001.81,0001.36
2022-02-15 12:40:00,,0816.6,5.00,0.00,22.0,21.3,00.0,31.2,23.8,04.8,0000.0,0005.20,0001.81,0001.34
2022-02-15 12:41:00,,0816.7,4.98,0.00,22.0,21.3,00.0,31.1,23.7,04.8,0000.0,0004.16,0001.75,0001.33
2022-02-15 12:42:00,,0816.7,5.01,0.00,22.0,21.3,00.0,31.1,23.7,04.9,0000.0,0003.39,0001.71,0001.33
2022-02-15 12:43:00,,0816.6,4.99,0.00,22.0,21.3,00.0,31.1,23.7,05.5,0000.0,0003.31,0001.73,0001.33
2022-02-15 12:44:00,,0816.7,5.01,0.00,22.0,21.3,00.0,31.1,23.7,05.5,0000.0,0003.26,0001.71,0001.32
2022-02-15 12:45:00,,0816.6,5.01,0.00,22.0,21.3,00.0,31.1,23.7,05.4,0000.0,0003.04,0001.70,0001.32
2022-02-15 12:46:00,,0816.7,5.00,0.00,22.0,21.3,00.0,31.1,23.7,05.6,0000.0,0002.43,0001.66,0001.32
2022-02-15 12:47:00,,0816.5,4.99,0.00,22.0,21.4,00.0,31.1,23.7,05.4,0000.0,0002.46,0001.65,0001.31
2022-02-15 12:48:00,,0816.5,5.00,0.00,22.0,21.4,00.0,31.1,23.7,05.3,0000.0,0002.70,0001.70,0001.31
2022-02-15 12:49:00,,0816.5,5.00,0.00,22.0,21.4,00.0,31.1,23.8,05.1,0000.0,0002.72,0001.67,0001.29
2022-02-15 12:50:00,,0816.5,4.99,0.00,22.0,21.4,00.0,31.1,23.7,05.0,0000.0,0002.86,0001.69,0001.29
2022-02-15 12:51:00,,0816.5,5.01,0.00,22.0,21.4,00.0,31.1,23.7,05.1,0000.0,0002.98,0001.71,0001.29
2022-02-15 12:52:00,,0816.5,4.99,0.00,22.0,21.3,00.0,31.1,23.7,05.1,0000.0,0003.13,0001.72,0001.29
2022-02-15 12:53:00,,0816.5,5.02,0.00,22.0,21.4,00.0,31.1,23.8,05.1,0000.0,0003.15,0001.72,0001.29
2022-02-15 12:54:00,,0816.6,5.00,0.00,22.0,21.4,00.0,31.1,23.8,05.1,0000.0,0003.04,0001.69,0001.28
2022-02-15 12:55:00,,0816.5,4.98,0.00,22.0,21.4,00.0,31.1,23.8,05.1,0000.0,0002.93,0001.65,0001.28
2022-02-15 12:56:00,,0816.4,4.99,0.00,22.0,21.4,00.0,31.1,23.8,05.0,0000.0,0003.40,0001.64,0001.27
2022-02-15 12:57:00,,0816.4,5.02,0.00,22.0,21.4,00.0,31.1,23.8,04.9,0000.0,0003.63,0001.67,0001.27
2022-02-15 12:58:00,,0816.4,5.01,0.00,22.0,21.4,00.0,31.1,23.8,04.9,0000.0,0003.57,0001.68,0001.27
2022-02-15 12:59:00,,0816.6,4.99,0.00,22.0,21.4,00.0,31.1,23.8,04.8,0000.0,0003.35,0001.63,0001.26
